CAPE
0 0 0 0 2 3 6 8 3 1 5 6 18 551 515 485 178 47 160 201 277 60 57 27 58 159 149 91 52 50 52 16 56 20 0 4 42 32 23 30 53 42 49
0 0 0 0 0 3 6 8 6 3 4 4 2 324 14 6 7 6 4 4 1 2 3 0 33 89 84 75 51 18 14 16 0 41 47 77 23 26 20 13 9 30 41
0 0 0 0 0 0 4 6 8 4 3 3 3 5 5 6 8 8 5 3 3 4 5 1 1 0 0 1 6 43 36 17 0 0 1 37 37 8 1 6 13 3 3
0 0 0 0 0 0 0 4 5 5 3 2 2 6 10 8 6 9 8 4 2 5 3 3 3 3 0 0 1 50 54 48 14 0 0 0 0 18 14 0 0 0 13
0 0 0 0 0 0 0 3 4 2 3 2 2 3 4 6 5 6 3 5 3 3 4 2 2 2 4 0 0 0 2 4 1 0 2 0 0 0 0 0 0 0 0
0 0 0 0 0 0 0 0 0 0 1 2 3 2 1 1 2 3 5 7 5 4 4 3 3 3 2 1 2 0 0 0 1 3 3 1 0 0 0 0 0 0 0
0 0 0 0 0 0 0 0 0 0 0 0 0 0 4 1 1 0 6 3 2 4 4 4 4 3 2 1 1 1 1 2 2 1 2 6 11 9 1 1 0 0 0
0 0 0 0 0 0 0 0 0 0 0 0 0 0 0 0 0 0 2 1 4 4 1 1 2 0 0 0 0 3 2 2 2 1 2 2 0 8 13 18 20 16 0
0 0 0 0 0 0 0 0 0 0 0 0 0 0 0 0 0 0 0 0 0 0 0 0 0 0 0 0 0 0 0 0 0 1 0 0 1 0 5 17 42 61 28
0 0 0 0 0 0 0 0 0 0 0 0 0 0 0 0 0 0 0 0 0 0 0 0 0 0 0 0 0 0 0 0 0 0 0 0 0 0 0 0 1 15 45
0 0 0 0 0 0 0 0 0 0 0 0 0 0 0 0 0 0 0 0 0 0 0 0 0 0 0 0 0 0 0 0 0 0 0 0 0 0 0 0 0 0 1
0 0 0 0 0 0 0 0 0 0 0 0 0 0 0 0 0 0 0 0 0 0 0 0 0 0 0 0 0 0 0 0 0 0 0 0 0 0 0 0 0 0 0
0 0 0 0 0 0 0 0 0 0 0 0 0 0 0 0 0 0 0 0 0 0 0 0 0 0 0 0 0 0 0 0 0 0 0 0 0 0 0 0 0 0 0
0 0 0 0 0 0 0 0 0 0 0 0 0 0 0 0 0 0 0 0 0 0 0 0 0 0 0 0 0 0 0 0 0 0 0 0 0 0 0 0 0 0 1
0 0 0 0 0 0 0 0 0 0 0 0 0 0 0 0 0 0 0 0 0 0 0 0 0 0 0 0 1 1 0 0 0 0 0 0 0 0 1 1 1 2 2
0 0 0 0 0 0 0 0 0 0 0 0 0 0 0 0 0 0 0 0 0 0 0 0 0 0 0 0 1 3 0 0 0 0 0 0 0 0 0 1 3 6 6
0 0 0 0 0 0 0 0 0 0 0 0 0 0 0 0 0 0 0 0 0 0 0 0 0 0 0 0 0 1 0 0 0 0 0 0 0 0 0 1 4 3 5
0 0 0 0 0 0 0 0 0 0 0 0 0 0 0 0 0 0 0 0 0 0 0 0 0 0 0 0 2 3 2 1 0 0 0 0 0 0 3 3 4 4 3
0 0 0 0 0 0 0 0 0 0 0 0 0 0 0 0 0 0 0 0 0 0 0 0 0 0 0 0 0 5 2 1 0 0 0 0 1 2 6 8 7 4 3
0 0 0 0 0 0 0 0 0 0 0 0 0 0 0 0 0 0 0 0 0 0 0 0 0 0 0 0 0 2 2 0 1 2 3 6 16 19 20 20 18 31 12
0 0 0 0 0 0 0 0 0 0 0 0 0 0 0 0 0 0 0 0 0 0 0 0 0 0 0 0 0 4 5 4 2 3 3 3 12 15 27 48 51 53 51
1 2 2 1 0 0 0 0 0 0 0 0 0 0 0 0 0 0 0 0 0 0 0 0 0 0 0 0 1 7 16 15 10 8 5 9 17 23 24 27 36 58 23
2 2 1 0 0 0 0 0 0 0 0 0 0 0 0 0 0 0 0 0 0 0 0 0 0 0 0 1 5 11 15 15 18 19 30 21 21 25 28 36 23 14 14
1 0 0 0 0 0 0 0 0 0 0 0 0 0 0 0 0 0 0 1 1 2 3 3 5 7 8 7 6 10 17 29 26 23 37 28 25 27 29 22 7 9 16
0 0 0 0 0 0 0 0 0 0 0 0 0 0 0 0 1 1 2 4 5 7 15 25 23 28 24 19 28 39 30 50 44 49 54 51 11 19 13 12 10 12 9
0 0 0 0 0 0 0 0 0 0 0 0 0 0 1 2 4 4 4 3 8 13 15 18 23 21 34 30 31 39 41 44 38 57 23 10 6 10 11 8 8 7 11
CIN
0 0 0 0 0 0 0 0 0 0 0 0 -18 0 0 0 -8 -16 -8 -2 0 -16 -353 -30 -21 -1 -5 -44 -28 -24 -17 -44 -21 -38 -13 -92 -26 -28 -41 -51 -33 -38 -34
0 0 0 0 0 0 0 0 0 0 0 0 0 0 -5 0 0 0 0 0 0 0 0 -21 -24 -9 -3 -2 -15 -28 -37 -11 0 -9 -5 0 -14 -25 -37 -44 -65 -50 -44
0 0 0 0 0 0 0 0 0 0 0 0 0 0 0 0 0 0 0 0 0 0 0 0 0 0 0 -36 -51 -17 -20 -28 0 0 -13 -4 0 0 -7 -13 -28 -17 -17
0 0 0 0 0 0 0 0 0 0 0 0 0 0 0 0 0 0 0 0 0 0 0 0 0 0 0 0 -1 0 -1 -7 -19 0 0 0 0 -1 0 0 0 0 -13
0 0 0 0 0 0 0 0 0 0 0 0 0 0 0 0 0 0 0 0 0 0 0 0 0 0 0 0 0 0 0 0 0 0 0 0 0 0 0 0 0 0 0
0 0 0 0 0 0 0 0 0 0 0 0 0 0 0 0 0 0 0 0 0 0 0 0 0 0 0 0 0 0 0 0 0 0 0 0 0 0 0 0 0 0 0
0 0 0 0 0 0 0 0 0 0 0 0 0 0 0 0 0 0 0 0 0 0 0 0 0 0 0 0 0 0 0 0 0 0 0 0 0 0 -1 0 0 0 0
0 0 0 0 0 0 0 0 0 0 0 0 0 0 0 0 0 0 0 0 0 0 0 0 0 0 0 0 0 0 0 0 0 0 0 0 0 0 0 0 -1 -2 0
0 0 0 0 0 0 0 0 0 0 0 0 0 0 0 0 0 0 0 0 0 0 0 0 0 0 0 0 0 0 0 0 0 0 0 0 0 0 0 -1 0 0 0
0 0 0 0 0 0 0 0 0 0 0 0 0 0 0 0 0 0 0 0 0 0 0 0 0 0 0 0 0 0 0 0 0 0 0 0 0 0 0 0 0 -1 0
0 0 0 0 0 0 0 0 0 0 0 0 0 0 0 0 0 0 0 0 0 0 0 0 0 0 0 0 0 0 0 0 0 0 0 0 0 0 0 0 0 0 0
0 0 0 0 0 0 0 0 0 0 0 0 0 0 0 0 0 0 0 0 0 0 0 0 0 0 0 0 0 0 0 0 0 0 0 0 0 0 0 0 0 0 0
0 0 0 0 0 0 0 0 0 0 0 0 0 0 0 0 0 0 0 0 0 0 0 0 0 0 0 0 0 0 0 0 0 0 0 0 0 0 0 0 0 0 0
0 0 0 0 0 0 0 0 0 0 0 0 0 0 0 0 0 0 0 0 0 0 0 0 0 0 0 0 0 0 0 0 0 0 0 0 0 0 0 0 0 0 0
0 0 0 0 0 0 0 0 0 0 0 0 0 0 0 0 0 0 0 0 0 0 0 0 0 0 0 0 0 0 0 0 0 0 0 0 0 0 0 0 0 0 0
0 0 0 0 0 0 0 0 0 0 0 0 0 0 0 0 0 0 0 0 0 0 0 0 0 0 0 0 0 0 0 0 0 0 0 0 0 0 0 0 0 0 0
0 0 0 0 0 0 0 0 0 0 0 0 0 0 0 0 0 0 0 0 0 0 0 0 0 0 0 0 0 0 0 0 0 0 0 0 0 0 0 0 0 0 0
0 0 0 0 0 0 0 0 0 0 0 0 0 0 0 0 0 0 0 0 0 0 0 0 0 0 0 0 0 0 0 0 0 0 0 0 0 0 0 0 0 0 0
0 0 0 0 0 0 0 0 0 0 0 0 0 0 0 0 0 0 0 0 0 0 0 0 0 0 0 0 0 0 0 0 0 0 0 0 0 0 0 0 0 0 0
0 0 0 0 0 0 0 0 0 0 0 0 0 0 0 0 0 0 0 0 0 0 0 0 0 0 0 0 0 0 0 0 0 0 0 0 0 0 0 0 0 0 0
0 0 0 0 0 0 0 0 0 0 0 0 0 0 0 0 0 0 0 0 0 0 0 0 0 0 0 0 0 0 0 0 0 0 0 0 0 0 0 0 0 0 0
0 0 0 0 0 0 0 0 0 0 0 0 0 0 0 0 0 0 0 0 0 0 0 0 0 0 0 0 0 0 0 0 0 0 0 0 0 0 0 0 0 0 0
0 0 0 0 0 0 0 0 0 0 0 0 0 0 0 0 0 0 0 0 0 0 0 0 0 0 0 0 0 0 0 0 0 0 0 0 0 0 0 0 0 0 0
0 0 0 0 0 0 0 0 0 0 0 0 0 0 0 0 0 0 0 0 0 0 0 0 0 0 0 0 0 0 0 0 0 0 0 0 0 0 0 0 0 0 0
0 0 0 0 0 0 0 0 0 0 0 0 0 0 0 0 0 0 0 0 0 0 0 0 0 0 0 0 0 0 0 0 0 0 0 0 0 0 0 0 0 0 0
0 0 0 0 0 0 0 0 0 0 0 0 0 0 0 0 0 0 0 0 0 0 0 0 0 0 0 0 0 0 0 0 0 0 0 0 0 0 0 0 0 0 0
Wind_Speed
7 9 11 14 16 17 19 19 17 17 12 9 5 2 1 3 5 6 8 10 10 9 12 8 8 12 11 12 12 6 10 5 6 6 3 2 6 8 7 6 7 8 9
10 11 13 15 16 16 18 17 17 16 13 9 6 2 5 5 5 6 10 11 9 4 5 6 6 11 9 12 11 10 6 5 6 6 5 6 7 8 10 9 8 11 10
10 12 15 15 14 16 17 17 17 16 15 15 10 5 6 6 7 9 8 11 12 11 8 9 6 4 4 3 6 8 10 7 5 4 2 3 7 9 8 12 10 13 10
7 9 11 14 14 13 13 15 16 16 14 19 16 17 10 7 8 7 8 9 15 14 12 12 11 9 5 6 2 4 5 5 6 1 1 1 4 5 6 7 11 11 11
6 8 9 10 12 12 10 12 13 16 16 19 16 13 16 10 9 8 11 12 11 15 13 14 12 11 7 9 9 7 3 2 1 3 3 1 1 1 2 3 6 9 10
4 6 7 8 10 10 12 11 13 15 17 15 17 16 18 16 12 13 9 9 9 9 14 15 12 12 10 9 7 6 7 6 4 3 2 1 1 2 3 2 2 3 3
2 5 6 7 9 12 12 11 15 15 14 13 15 15 12 13 15 12 11 10 9 9 14 15 12 9 10 10 9 8 7 7 5 5 3 2 2 1 0 1 2 3 3
4 3 4 6 8 9 10 11 13 14 14 14 14 11 14 8 7 6 6 9 8 8 10 10 10 12 10 9 9 6 6 7 7 9 7 3 2 2 2 1 1 4 3
5 5 3 5 6 8 9 10 11 12 12 12 12 13 12 10 8 10 11 7 10 9 12 10 10 10 10 11 9 6 8 7 6 6 6 5 6 5 5 3 5 7 9
7 5 5 4 5 6 7 8 10 10 11 11 10 9 9 9 9 11 11 12 10 11 12 11 12 11 11 11 10 8 9 8 7 6 7 5 5 5 5 6 6 6 7
11 9 6 6 4 5 6 7 8 9 9 8 8 8 8 8 9 9 10 13 13 14 13 11 10 10 11 10 9 8 8 7 6 7 7 6 6 5 5 5 5 5 6
11 9 7 7 6 5 5 6 6 6 7 7 8 9 9 9 9 10 10 10 9 9 9 10 10 10 10 9 9 9 8 8 8 8 7 7 6 7 5 3 5 5 5
13 10 8 7 6 5 5 5 5 5 6 6 7 8 10 10 11 10 9 8 8 9 10 10 11 11 11 9 10 9 9 8 8 7 7 8 8 7 6 7 7 6 5
15 13 10 8 6 5 5 4 5 5 5 5 6 7 7 7 7 8 9 9 9 8 8 8 8 8 8 7 9 9 9 9 8 8 8 8 8 9 9 8 9 8 8
16 13 12 9 7 6 4 4 4 3 3 4 5 6 6 6 6 6 7 8 9 9 9 8 6 4 4 4 8 9 9 9 9 8 8 8 10 13 11 8 9 10 9
16 14 12 10 8 6 4 3 3 3 3 4 5 5 6 6 6 7 8 7 7 7 8 9 10 10 7 13 15 12 9 9 9 9 9 9 10 9 13 14 15 13 12
15 14 13 9 7 6 4 3 2 1 2 3 4 5 5 6 6 6 6 7 7 7 6 6 7 8 8 13 15 13 9 9 9 10 10 9 7 11 10 12 15 15 15
13 12 10 9 7 5 4 2 1 2 3 4 5 6 6 7 7 7 8 8 7 8 8 7 7 8 7 11 13 15 10 9 10 10 11 11 12 11 13 13 13 13 13
9 9 9 8 7 5 4 1 1 2 3 4 5 6 7 8 8 9 9 9 9 9 9 9 10 11 10 13 14 13 11 9 10 11 11 11 13 15 18 14 15 16 15
9 9 8 7 5 4 2 2 3 4 4 5 7 7 8 9 10 10 10 9 9 10 9 10 10 13 12 14 14 14 9 10 9 11 11 12 13 17 19 15 14 14 15
11 9 7 5 4 1 3 3 4 4 5 7 7 7 8 9 9 10 9 9 9 10 10 11 11 11 11 12 15 16 10 9 10 11 10 9 15 18 20 22 15 15 16
8 6 5 4 2 3 4 4 5 6 7 7 8 8 8 7 8 10 9 10 10 10 10 11 10 8 9 12 13 16 17 15 12 12 10 11 20 24 25 19 21 20 20
5 5 4 2 0 3 3 5 6 7 8 9 9 9 9 8 8 9 9 9 8 8 9 9 9 9 8 9 15 17 16 17 12 10 15 24 24 24 19 20 19 21 10
5 3 1 2 4 4 5 6 7 7 8 10 10 9 9 9 9 7 7 7 7 8 9 9 10 10 10 9 9 8 10 15 12 15 13 18 22 22 14 14 12 9 9
3 2 3 4 5 6 6 7 8 8 8 9 9 9 7 8 9 8 7 8 9 10 10 10 10 10 10 10 16 16 11 10 13 18 11 9 8 10 10 10 9 9 9
3 4 5 6 6 6 7 7 7 7 8 8 7 7 8 7 7 8 9 13 16 18 19 20 16 11 18 22 22 22 22 23 23 12 8 10 11 11 11 10 10 10 12
Wind_Direction
351 358 359 12 5 4 2 357 355 352 350 339 320 295 274 5 12 358 335 296 244 217 218 205 207 199 196 186 185 181 180 171 175 153 173 201 219 214 212 206 195 197 199
0 359 8 15 15 7 2 360 3 358 351 330 294 52 75 49 54 41 35 21 21 280 261 208 208 204 191 191 187 182 172 183 176 202 179 203 206 225 220 214 206 207 200
356 358 3 12 1 5 1 2 3 2 3 356 16 53 86 69 44 40 36 22 24 33 42 42 64 85 103 155 173 187 183 184 189 196 221 205 226 202 203 221 221 220 214
10 10 7 11 14 3 360 5 5 11 15 23 29 32 44 39 32 31 27 30 31 25 32 53 50 41 52 71 53 161 184 186 189 120 207 65 333 212 198 215 218 220 220
16 18 14 10 18 15 15 10 13 23 24 33 39 36 36 26 16 20 30 23 28 29 16 34 31 39 33 50 45 35 48 99 133 166 154 160 144 343 316 178 200 219 223
20 36 24 22 26 32 30 34 19 28 26 29 38 42 41 25 18 11 18 19 25 24 22 33 30 24 28 11 39 49 33 40 44 25 44 126 166 199 195 245 263 280 229
36 39 22 31 29 33 36 34 34 40 33 36 34 40 36 45 36 4 13 15 24 20 21 24 22 24 15 12 25 31 33 36 39 21 3 18 341 324 218 16 301 253 263
144 79 40 32 37 35 37 46 43 44 34 36 40 44 46 32 51 18 9 28 16 33 37 36 26 29 18 23 27 28 24 22 28 31 21 337 25 307 248 223 235 266 251
175 139 97 64 45 40 40 41 46 51 47 41 44 39 46 35 24 41 36 22 21 25 35 29 27 28 26 28 27 37 26 25 22 35 14 12 8 354 344 282 246 254 259
188 170 137 96 83 63 42 44 48 46 45 46 43 43 39 35 32 31 30 32 28 22 33 19 26 18 24 25 34 31 18 26 20 14 12 15 0 348 339 348 342 296 260
197 183 167 142 113 88 69 50 45 43 44 46 51 55 44 43 43 44 27 21 15 14 25 17 25 17 22 21 22 24 24 20 15 16 0 2 358 348 333 322 321 324 350
188 183 177 165 148 118 92 73 58 53 44 34 37 37 34 35 37 31 34 28 25 21 18 8 12 14 17 16 14 13 6 10 1 1 347 345 343 333 315 317 319 303 305
181 180 185 186 163 136 107 85 62 50 40 34 33 35 28 24 24 27 24 21 17 14 10 3 9 8 7 1 5 358 350 352 345 340 340 337 330 322 324 321 314 309 293
184 184 184 190 175 162 131 112 82 46 35 36 36 34 29 25 18 10 7 8 8 12 12 9 3 0 353 356 350 341 338 333 331 331 330 325 317 322 320 311 306 305 303
187 187 182 184 179 170 150 127 102 74 38 44 38 32 22 17 12 13 10 2 359 357 355 353 359 355 331 355 333 336 328 323 319 315 316 315 321 309 305 307 306 308 301
190 185 179 177 170 174 159 133 107 70 31 34 25 12 3 355 354 351 349 348 349 347 341 342 342 341 344 340 337 331 321 316 315 313 314 308 299 302 307 306 300 292 291
187 180 172 165 175 166 147 142 130 100 45 28 17 2 347 343 345 337 333 337 331 324 321 316 316 319 318 319 323 322 315 314 310 310 307 303 309 302 304 299 289 280 277
181 171 160 155 145 139 133 115 37 24 4 1 354 349 345 338 333 328 330 329 327 326 322 319 316 311 305 306 308 311 301 297 301 303 304 306 306 306 305 300 297 292 289
157 143 138 132 132 122 109 68 346 346 339 340 334 337 337 332 330 327 328 325 322 320 315 315 318 315 315 317 313 307 303 300 305 297 292 299 299 302 299 301 296 296 291
116 115 108 109 107 90 66 320 339 332 336 341 336 334 329 323 320 321 320 319 316 312 314 314 309 306 303 310 310 312 302 308 306 302 289 281 279 293 296 292 291 287 289
104 104 93 86 84 68 333 326 324 330 335 328 322 318 315 313 308 309 307 305 307 307 310 308 308 302 299 304 308 305 298 307 309 300 299 296 297 293 287 287 285 282 290
96 93 101 95 77 3 327 329 322 336 324 320 313 311 310 308 304 305 307 309 306 302 302 304 301 300 301 296 299 301 289 305 301 300 300 300 297 297 295 294 292 293 303
91 76 79 95 65 358 343 325 330 323 320 314 312 312 313 309 306 302 305 302 301 297 302 303 303 303 305 305 297 301 295 297 298 295 294 300 299 295 295 293 298 304 290
87 84 61 336 330 352 338 320 319 322 315 311 314 313 309 308 311 305 297 297 300 301 299 298 298 300 297 297 305 295 299 297 304 306 297 291 290 294 295 294 297 294 295
69 6 351 331 331 336 324 322 326 322 313 312 311 308 307 307 306 299 301 294 287 288 286 289 293 295 294 293 297 300 299 298 300 307 296 296 307 296 295 293 296 296 296
6 358 344 332 333 326 320 321 320 315 308 306 307 313 310 304 303 306 301 291 289 293 293 294 292 288 291 298 299 301 305 304 304 296 304 303 301 296 299 301 298 300 299